When you browse on this site, cookies collect data to enhance your experience and personalize the content and advertising you see.
Visit our Privacy Policy to learn more. By continuing to use the site, you agree to this use of cookies and data.
  • In United Kingdom
  • List of Countries
  • For 7 days
  • Water Temperature
  • Weather Map
  • Weather Widgets
  • user-avatar
    Login

    Hourly Weather Herborn

    Today, 20 October, Sunday

    Time Temperature Precipitation Wind Pressure Humidity
    00:00 +13°C° 0.4 mm 2 mps 734 mmHg 98%
    01:00 +13°C° 0.4 mm 1 mps 734 mmHg 98%
    02:00 +13°C° 0.3 mm 1 mps 734 mmHg 98%
    03:00 +13°C° 0.3 mm 1 mps 734 mmHg 98%
    04:00 +13°C° 0.3 mm 1 mps 734 mmHg 98%
    05:00 +13°C° 0.3 mm 1 mps 734 mmHg 98%
    06:00 +13°C° 0.3 mm 1 mps 734 mmHg 98%
    07:00 +13°C° 0.3 mm 1 mps 734 mmHg 98%
    08:00 +13°C° 0.6 mm 1 mps 734 mmHg 97%
    09:00 +13°C° 0.6 mm 1 mps 734 mmHg 96%
    10:00 +14°C° 0.6 mm 1 mps 734 mmHg 95%
    11:00 +14°C° 0.5 mm 1 mps 734 mmHg 94%
    12:00 +15°C° 0.5 mm 1 mps 734 mmHg 93%
    13:00 +15°C° 0.5 mm 1 mps 734 mmHg 92%
    14:00 +15°C° 0 mm 1 mps 734 mmHg 91%
    15:00 +16°C° 0 mm 1 mps 734 mmHg 91%
    16:00 +16°C° 0 mm 1 mps 734 mmHg 91%
    17:00 +15°C° 0.1 mm 1 mps 734 mmHg 92%
    18:00 +15°C° 0.1 mm 1 mps 735 mmHg 93%
    19:00 +14°C° 0.1 mm 1 mps 735 mmHg 94%
    20:00 +14°C° 0.1 mm 1 mps 735 mmHg 94%
    21:00 +14°C° 0.1 mm 1 mps 735 mmHg 94%
    22:00 +13°C° 0.1 mm 0 mps 736 mmHg 94%
    23:00 +14°C° 0.1 mm 1 mps 736 mmHg 94%

    Tomorrow, 21 October, Monday

    Time Temperature Precipitation Wind Pressure Humidity
    00:00 +14°C° 0.1 mm 2 mps 736 mmHg 93%
    01:00 +14°C° 0.1 mm 2 mps 736 mmHg 92%
    02:00 +14°C° 0 mm 2 mps 736 mmHg 93%
    03:00 +13°C° 0 mm 2 mps 736 mmHg 93%
    04:00 +13°C° 0 mm 2 mps 736 mmHg 94%
    05:00 +13°C° 0.1 mm 2 mps 736 mmHg 94%
    06:00 +13°C° 0.1 mm 2 mps 737 mmHg 95%
    07:00 +14°C° 0.1 mm 2 mps 738 mmHg 96%
    08:00 +14°C° 0.1 mm 2 mps 738 mmHg 95%
    09:00 +14°C° 0.1 mm 2 mps 739 mmHg 94%
    10:00 +14°C° 0.1 mm 2 mps 739 mmHg 93%
    11:00 +15°C° 0.2 mm 2 mps 740 mmHg 91%
    12:00 +15°C° 0.2 mm 2 mps 741 mmHg 89%
    13:00 +15°C° 0.2 mm 2 mps 741 mmHg 86%
    14:00 +15°C° 0 mm 2 mps 741 mmHg 87%
    15:00 +14°C° 0 mm 2 mps 741 mmHg 89%
    16:00 +14°C° 0 mm 2 mps 741 mmHg 90%
    17:00 +13°C° 0 mm 2 mps 742 mmHg 91%
    18:00 +13°C° 0 mm 2 mps 742 mmHg 91%
    19:00 +12°C° 0 mm 2 mps 743 mmHg 92%
    20:00 +12°C° 0.2 mm 2 mps 743 mmHg 93%
    21:00 +12°C° 0.2 mm 2 mps 743 mmHg 94%
    22:00 +12°C° 0.2 mm 2 mps 744 mmHg 95%
    23:00 +12°C° 0.1 mm 2 mps 744 mmHg 95%

    Day after tomorrow, 22 October, Tuesday

    Time Temperature Precipitation Wind Pressure Humidity
    00:00 +10°C° 0.1 mm 2 mps 744 mmHg 95%
    01:00 +10°C° 0.1 mm 2 mps 744 mmHg 95%
    02:00 +10°C° 0 mm 2 mps 744 mmHg 95%
    03:00 +10°C° 0 mm 2 mps 744 mmHg 95%
    04:00 +9°C° 0 mm 2 mps 744 mmHg 95%
    05:00 +9°C° 0 mm 2 mps 745 mmHg 95%
    06:00 +9°C° 0 mm 2 mps 745 mmHg 95%
    07:00 +9°C° 0 mm 2 mps 745 mmHg 95%
    08:00 +10°C° 0 mm 2 mps 745 mmHg 93%
    09:00 +10°C° 0 mm 2 mps 746 mmHg 90%
    10:00 +12°C° 0 mm 2 mps 746 mmHg 87%
    11:00 +13°C° 0 mm 2 mps 746 mmHg 83%
    12:00 +14°C° 0 mm 2 mps 746 mmHg 78%
    13:00 +15°C° 0 mm 2 mps 746 mmHg 73%
    14:00 +14°C° 0 mm 2 mps 746 mmHg 73%
    15:00 +14°C° 0 mm 1 mps 746 mmHg 73%
    16:00 +14°C° 0 mm 1 mps 745 mmHg 73%
    17:00 +13°C° 0 mm 1 mps 745 mmHg 78%
    18:00 +11°C° 0 mm 1 mps 745 mmHg 84%
    19:00 +9°C° 0 mm 0 mps 745 mmHg 89%
    20:00 +8°C° 0 mm 0 mps 745 mmHg 90%
    21:00 +8°C° 0 mm 0 mps 745 mmHg 91%
    22:00 +8°C° 0 mm 0 mps 745 mmHg 91%
    23:00 +9°C° 0 mm 1 mps 745 mmHg 92%

    23 October, Wednesday

    Time Temperature Precipitation Wind Pressure Humidity
    00:00 +8°C° 0 mm 1 mps 745 mmHg 92%
    01:00 +8°C° 0 mm 1 mps 744 mmHg 93%
    02:00 +8°C° 0 mm 1 mps 744 mmHg 93%
    03:00 +8°C° 0 mm 1 mps 744 mmHg 93%
    04:00 +8°C° 0 mm 1 mps 743 mmHg 93%
    05:00 +7°C° 0 mm 1 mps 743 mmHg 94%
    06:00 +7°C° 0 mm 1 mps 743 mmHg 94%
    07:00 +7°C° 0 mm 1 mps 742 mmHg 94%
    08:00 +9°C° 0 mm 1 mps 742 mmHg 87%
    09:00 +11°C° 0 mm 1 mps 742 mmHg 81%
    10:00 +13°C° 0 mm 1 mps 742 mmHg 74%
    11:00 +14°C° 0 mm 2 mps 742 mmHg 71%
    12:00 +15°C° 0 mm 2 mps 742 mmHg 69%
    13:00 +17°C° 0 mm 2 mps 741 mmHg 66%
    14:00 +16°C° 0 mm 2 mps 741 mmHg 69%
    15:00 +16°C° 0 mm 2 mps 740 mmHg 73%
    16:00 +16°C° 0 mm 2 mps 739 mmHg 77%
    17:00 +15°C° 0 mm 2 mps 739 mmHg 82%
    18:00 +14°C° 0 mm 2 mps 739 mmHg 88%
    19:00 +12°C° 0 mm 2 mps 739 mmHg 94%
    20:00 +12°C° 0 mm 1 mps 738 mmHg 94%
    21:00 +12°C° 0 mm 1 mps 738 mmHg 95%
    22:00 +12°C° 0 mm 1 mps 738 mmHg 95%
    23:00 +12°C° 0 mm 1 mps 738 mmHg 95%

    24 October, Thursday

    Time Temperature Precipitation Wind Pressure Humidity
    00:00 +11°C° 0 mm 1 mps 737 mmHg 96%
    01:00 +11°C° 0 mm 1 mps 737 mmHg 96%
    02:00 +11°C° 0 mm 1 mps 737 mmHg 96%
    03:00 +11°C° 0 mm 1 mps 737 mmHg 96%
    04:00 +11°C° 0 mm 1 mps 737 mmHg 96%
    05:00 +11°C° 0 mm 1 mps 737 mmHg 96%
    06:00 +11°C° 0 mm 1 mps 736 mmHg 96%
    07:00 +10°C° 0 mm 1 mps 736 mmHg 96%
    08:00 +12°C° 0 mm 1 mps 737 mmHg 93%
    09:00 +13°C° 0 mm 1 mps 737 mmHg 89%
    10:00 +15°C° 0 mm 1 mps 737 mmHg 86%
    11:00 +16°C° 0 mm 2 mps 737 mmHg 82%
    12:00 +17°C° 0 mm 2 mps 737 mmHg 78%
    13:00 +18°C° 0 mm 2 mps 736 mmHg 74%
    14:00 +18°C° 0 mm 2 mps 736 mmHg 76%
    15:00 +17°C° 0 mm 2 mps 736 mmHg 79%
    16:00 +18°C° 0 mm 1 mps 736 mmHg 82%
    17:00 +15°C° 0 mm 1 mps 736 mmHg 86%
    18:00 +14°C° 0 mm 1 mps 736 mmHg 90%
    19:00 +12°C° 0 mm 1 mps 736 mmHg 95%
    20:00 +12°C° 0 mm 1 mps 737 mmHg 95%
    21:00 +12°C° 0 mm 1 mps 737 mmHg 95%
    22:00 +12°C° 0 mm 1 mps 737 mmHg 96%
    23:00 +12°C° 0 mm 1 mps 738 mmHg 96%

    25 October, Friday

    Time Temperature Precipitation Wind Pressure Humidity
    00:00 +12°C° 0 mm 1 mps 738 mmHg 97%
    01:00 +12°C° 0 mm 1 mps 738 mmHg 97%
    02:00 +12°C° 0 mm 1 mps 738 mmHg 97%
    03:00 +12°C° 0 mm 1 mps 739 mmHg 97%
    04:00 +13°C° 0 mm 1 mps 739 mmHg 97%
    05:00 +13°C° 0 mm 1 mps 739 mmHg 97%
    06:00 +13°C° 0 mm 1 mps 740 mmHg 96%
    07:00 +13°C° 0 mm 1 mps 740 mmHg 96%
    08:00 +14°C° 0 mm 1 mps 740 mmHg 94%
    09:00 +14°C° 0 mm 1 mps 741 mmHg 91%
    10:00 +15°C° 0 mm 2 mps 741 mmHg 89%
    11:00 +15°C° 0 mm 1 mps 741 mmHg 85%
    12:00 +16°C° 0 mm 1 mps 741 mmHg 81%
    13:00 +18°C° 0 mm 1 mps 742 mmHg 77%
    14:00 +18°C° 0 mm 1 mps 741 mmHg 78%
    15:00 +15°C° 0 mm 0 mps 741 mmHg 78%
    16:00 +15°C° 0 mm 0 mps 741 mmHg 79%
    17:00 +14°C° 0 mm 0 mps 741 mmHg 83%
    18:00 +13°C° 0 mm 0 mps 742 mmHg 87%
    19:00 +11°C° 0 mm 0 mps 742 mmHg 91%
    20:00 +11°C° 0 mm 0 mps 742 mmHg 92%
    21:00 +12°C° 0 mm 1 mps 742 mmHg 94%
    22:00 +11°C° 0 mm 1 mps 743 mmHg 95%
    23:00 +11°C° 0 mm 1 mps 743 mmHg 95%
    Show more